Location: Soapstone Prairie Natural Area
(40.9437°N, 105.0829°W)
Time: 14:19:17
(UTC-06:00)

ISS - Visible Passes

Search period start: 01 October 2014 00:00
Search period end: 11 October 2014 00:00
Orbit: 413 x 416 km, 51.6° (Epoch: 01 October)

Date Brightness Start Highest point End Pass type
(mag) Time Alt. Az. Time Alt. Az. Time Alt. Az.
01 Oct -2.7 05:11:17 48° SSE 05:11:17 48° SSE 05:13:49 10° SE visible
02 Oct -1.3 05:58:03 14° SW 05:58:03 14° SW 05:59:30 10° SSW visible
05 Oct -1.9 20:09:12 10° SSW 20:11:06 26° S 20:11:06 26° S visible
06 Oct -1.7 19:20:41 10° S 19:23:10 20° SE 19:24:33 16° E visible
06 Oct -0.6 20:56:24 10° WSW 20:57:27 18° W 20:57:27 18° W visible
07 Oct -3.3 20:07:01 10° SW 20:10:20 82° NW 20:10:42 68° NNE visible
08 Oct -3.1 19:17:50 10° SW 19:21:06 55° SE 19:23:47 14° ENE visible
08 Oct -0.5 20:55:10 10° W 20:56:39 19° WNW 20:56:39 19° WNW visible
09 Oct -1.9 20:05:26 10° W 20:08:31 34° NNW 20:09:34 27° NNE visible
10 Oct -2.7 19:15:51 10° WSW 19:19:07 55° NNW 19:22:22 10° NE visible
10 Oct -0.3 20:54:10 10° NW 20:55:13 14° NW 20:55:13 14° NW visible
